• In Deutschland
  • Länderverzeichnis
  • Für 7 Tage
  • Wassertemperatur
  • Satellitenkarten
  • Wetterkarte
  • Widgets
  • user-avatar
    Anmelden

    Stündliche Wetter Florencia

    Heute, 20 November, Montag

    Zeit Temperatur Niederschläge Wind Luftdruck Luftfeuchtigkeit
    00:00 +25°C° 1,2 mm 1 m/S 731 mmHg 93%
    01:00 +25°C° 0 mm 1 m/S 731 mmHg 94%
    02:00 +25°C° 0,8 mm 1 m/S 730 mmHg 94%
    03:00 +25°C° 0,8 mm 1 m/S 730 mmHg 94%
    04:00 +24°C° 0,8 mm 1 m/S 730 mmHg 93%
    05:00 +24°C° 1,1 mm 1 m/S 731 mmHg 93%
    06:00 +24°C° 1,1 mm 1 m/S 731 mmHg 93%
    07:00 +24°C° 1,1 mm 1 m/S 732 mmHg 92%
    08:00 +25°C° 1,3 mm 1 m/S 732 mmHg 90%
    09:00 +26°C° 1,3 mm 1 m/S 732 mmHg 88%
    10:00 +27°C° 1,3 mm 1 m/S 733 mmHg 85%
    11:00 +28°C° 0,8 mm 1 m/S 732 mmHg 79%
    12:00 +29°C° 0,8 mm 1 m/S 731 mmHg 72%
    13:00 +31°C° 0,8 mm 1 m/S 731 mmHg 65%
    14:00 +31°C° 0,8 mm 1 m/S 730 mmHg 66%
    15:00 +30°C° 0,8 mm 1 m/S 730 mmHg 67%
    16:00 +30°C° 0,8 mm 1 m/S 729 mmHg 68%
    17:00 +29°C° 0,9 mm 1 m/S 730 mmHg 75%
    18:00 +27°C° 0,9 mm 1 m/S 730 mmHg 81%
    19:00 +25°C° 0,9 mm 1 m/S 731 mmHg 88%
    20:00 +25°C° 0,2 mm 1 m/S 731 mmHg 88%
    21:00 +25°C° 0,2 mm 1 m/S 732 mmHg 88%
    22:00 +25°C° 0,2 mm 1 m/S 732 mmHg 87%
    23:00 +24°C° 0 mm 1 m/S 732 mmHg 87%

    Morgen, 21 November, Dienstag

    Zeit Temperatur Niederschläge Wind Luftdruck Luftfeuchtigkeit
    00:00 +24°C° 0 mm 1 m/S 732 mmHg 86%
    01:00 +24°C° 0 mm 1 m/S 731 mmHg 85%
    02:00 +24°C° 0 mm 1 m/S 731 mmHg 85%
    03:00 +24°C° 0 mm 1 m/S 731 mmHg 84%
    04:00 +24°C° 0 mm 1 m/S 730 mmHg 83%
    05:00 +24°C° 0 mm 1 m/S 731 mmHg 81%
    06:00 +25°C° 0 mm 1 m/S 731 mmHg 80%
    07:00 +25°C° 0 mm 1 m/S 732 mmHg 79%
    08:00 +28°C° 0 mm 1 m/S 732 mmHg 69%
    09:00 +29°C° 0 mm 0 m/S 732 mmHg 59%
    10:00 +31°C° 0 mm 0 m/S 733 mmHg 49%
    11:00 +32°C° 0 mm 0 m/S 732 mmHg 46%
    12:00 +35°C° 0 mm 1 m/S 731 mmHg 44%
    13:00 +36°C° 0 mm 1 m/S 730 mmHg 41%
    14:00 +36°C° 0,2 mm 1 m/S 730 mmHg 45%
    15:00 +35°C° 0,2 mm 1 m/S 729 mmHg 48%
    16:00 +34°C° 0,2 mm 1 m/S 728 mmHg 52%
    17:00 +32°C° 0,2 mm 1 m/S 729 mmHg 60%
    18:00 +30°C° 0,2 mm 1 m/S 729 mmHg 68%
    19:00 +27°C° 0,2 mm 1 m/S 730 mmHg 76%
    20:00 +27°C° 0,1 mm 1 m/S 730 mmHg 78%
    21:00 +26°C° 0,1 mm 1 m/S 731 mmHg 79%
    22:00 +26°C° 0,1 mm 1 m/S 732 mmHg 80%
    23:00 +25°C° 0,1 mm 1 m/S 732 mmHg 81%

    übermorgen, 22 November, Mittwoch

    Zeit Temperatur Niederschläge Wind Luftdruck Luftfeuchtigkeit
    00:00 +25°C° 0,1 mm 1 m/S 731 mmHg 81%
    01:00 +25°C° 0,1 mm 1 m/S 731 mmHg 81%
    02:00 +25°C° 0 mm 1 m/S 731 mmHg 81%
    03:00 +25°C° 0 mm 1 m/S 731 mmHg 81%
    04:00 +25°C° 0 mm 1 m/S 731 mmHg 82%
    05:00 +25°C° 0 mm 1 m/S 731 mmHg 80%
    06:00 +26°C° 0 mm 1 m/S 731 mmHg 78%
    07:00 +26°C° 0 mm 1 m/S 732 mmHg 76%
    08:00 +29°C° 0 mm 1 m/S 732 mmHg 66%
    09:00 +32°C° 0 mm 1 m/S 732 mmHg 55%
    10:00 +35°C° 0 mm 1 m/S 733 mmHg 44%
    11:00 +36°C° 0 mm 1 m/S 732 mmHg 43%
    12:00 +36°C° 0 mm 1 m/S 731 mmHg 41%
    13:00 +37°C° 0 mm 1 m/S 730 mmHg 40%
    14:00 +36°C° 0,2 mm 1 m/S 729 mmHg 43%
    15:00 +35°C° 0,2 mm 1 m/S 728 mmHg 46%
    16:00 +35°C° 0,2 mm 1 m/S 728 mmHg 50%
    17:00 +32°C° 0,7 mm 1 m/S 729 mmHg 58%
    18:00 +30°C° 0,7 mm 1 m/S 729 mmHg 66%
    19:00 +28°C° 0,7 mm 1 m/S 730 mmHg 75%
    20:00 +27°C° 0,4 mm 1 m/S 731 mmHg 77%
    21:00 +26°C° 0,4 mm 1 m/S 731 mmHg 79%
    22:00 +26°C° 0,4 mm 1 m/S 732 mmHg 82%
    23:00 +25°C° 0,2 mm 1 m/S 732 mmHg 81%

    23 November, Donnerstag

    Zeit Temperatur Niederschläge Wind Luftdruck Luftfeuchtigkeit
    00:00 +25°C° 0,2 mm 1 m/S 731 mmHg 81%
    01:00 +25°C° 0,2 mm 1 m/S 731 mmHg 81%
    02:00 +24°C° 0 mm 1 m/S 731 mmHg 79%
    03:00 +24°C° 0 mm 1 m/S 730 mmHg 77%
    04:00 +24°C° 0 mm 1 m/S 730 mmHg 76%
    05:00 +24°C° 0 mm 1 m/S 731 mmHg 73%
    06:00 +25°C° 0 mm 1 m/S 731 mmHg 71%
    07:00 +25°C° 0 mm 1 m/S 732 mmHg 68%
    08:00 +28°C° 0 mm 1 m/S 732 mmHg 60%
    09:00 +31°C° 0 mm 1 m/S 732 mmHg 52%
    10:00 +31°C° 0 mm 0 m/S 733 mmHg 44%
    11:00 +34°C° 0 mm 1 m/S 732 mmHg 43%
    12:00 +35°C° 0 mm 1 m/S 731 mmHg 41%
    13:00 +36°C° 0 mm 1 m/S 730 mmHg 39%
    14:00 +35°C° 0,2 mm 1 m/S 730 mmHg 44%
    15:00 +34°C° 0,2 mm 1 m/S 729 mmHg 49%
    16:00 +33°C° 0,2 mm 1 m/S 728 mmHg 54%
    17:00 +31°C° 0,7 mm 1 m/S 729 mmHg 63%
    18:00 +29°C° 0,7 mm 1 m/S 730 mmHg 71%
    19:00 +25°C° 0,7 mm 0 m/S 730 mmHg 79%
    20:00 +27°C° 0,6 mm 1 m/S 731 mmHg 80%
    21:00 +26°C° 0,6 mm 1 m/S 731 mmHg 80%
    22:00 +26°C° 0,6 mm 1 m/S 732 mmHg 81%
    23:00 +26°C° 0,4 mm 1 m/S 732 mmHg 82%

    24 November, Freitag

    Zeit Temperatur Niederschläge Wind Luftdruck Luftfeuchtigkeit
    00:00 +26°C° 0,4 mm 1 m/S 731 mmHg 82%
    01:00 +25°C° 0,4 mm 1 m/S 731 mmHg 83%
    02:00 +25°C° 0,6 mm 1 m/S 731 mmHg 85%
    03:00 +24°C° 0,6 mm 1 m/S 731 mmHg 87%
    04:00 +24°C° 0,6 mm 1 m/S 730 mmHg 88%
    05:00 +24°C° 0,1 mm 1 m/S 731 mmHg 86%
    06:00 +25°C° 0,1 mm 1 m/S 732 mmHg 84%
    07:00 +25°C° 0,1 mm 1 m/S 732 mmHg 81%
    08:00 +28°C° 0,1 mm 1 m/S 733 mmHg 72%
    09:00 +28°C° 0,1 mm 0 m/S 733 mmHg 62%
    10:00 +31°C° 0,1 mm 0 m/S 733 mmHg 53%
    11:00 +34°C° 0 mm 1 m/S 732 mmHg 49%
    12:00 +35°C° 0 mm 1 m/S 731 mmHg 45%
    13:00 +36°C° 0 mm 1 m/S 730 mmHg 41%
    14:00 +35°C° 0,2 mm 1 m/S 730 mmHg 46%
    15:00 +34°C° 0,2 mm 1 m/S 729 mmHg 51%
    16:00 +34°C° 0,2 mm 1 m/S 729 mmHg 55%
    17:00 +32°C° 0,6 mm 1 m/S 729 mmHg 63%
    18:00 +29°C° 0,6 mm 1 m/S 730 mmHg 71%
    19:00 +27°C° 0,6 mm 1 m/S 731 mmHg 79%
    20:00 +27°C° 1,1 mm 1 m/S 731 mmHg 84%
    21:00 +26°C° 1,1 mm 1 m/S 732 mmHg 88%
    22:00 +25°C° 1,1 mm 1 m/S 732 mmHg 92%
    23:00 +25°C° 0,4 mm 1 m/S 732 mmHg 92%

    25 November, Samstag

    Zeit Temperatur Niederschläge Wind Luftdruck Luftfeuchtigkeit
    00:00 +25°C° 0,4 mm 1 m/S 732 mmHg 92%
    01:00 +24°C° 0,4 mm 1 m/S 731 mmHg 92%
    02:00 +24°C° 0,3 mm 1 m/S 731 mmHg 92%
    03:00 +24°C° 0,3 mm 1 m/S 731 mmHg 91%
    04:00 +22°C° 0,3 mm 0 m/S 731 mmHg 91%
    05:00 +22°C° 0,1 mm 0 m/S 732 mmHg 90%
    06:00 +23°C° 0,1 mm 0 m/S 732 mmHg 88%
    07:00 +25°C° 0,1 mm 1 m/S 733 mmHg 86%
    08:00 +24°C° 0,1 mm 0 m/S 733 mmHg 80%
    09:00 +26°C° 0,1 mm 0 m/S 734 mmHg 74%
    10:00 +28°C° 0,1 mm 0 m/S 734 mmHg 69%
    11:00 +29°C° 0,2 mm 0 m/S 733 mmHg 65%
    12:00 +32°C° 0,2 mm 1 m/S 732 mmHg 61%
    13:00 +33°C° 0,2 mm 1 m/S 732 mmHg 57%
    14:00 +32°C° 0,3 mm 1 m/S 731 mmHg 59%
    15:00 +32°C° 0,3 mm 1 m/S 730 mmHg 61%
    16:00 +32°C° 0,3 mm 1 m/S 730 mmHg 64%
    17:00 +30°C° 0,4 mm 1 m/S 731 mmHg 70%
    18:00 +28°C° 0,4 mm 1 m/S 731 mmHg 77%
    19:00 +25°C° 0,4 mm 0 m/S 732 mmHg 84%
    20:00 +24°C° 0,4 mm 0 m/S 732 mmHg 86%
    21:00 +26°C° 0,4 mm 1 m/S 733 mmHg 88%
    22:00 +25°C° 0,4 mm 1 m/S 733 mmHg 90%
    23:00 +25°C° 0,1 mm 1 m/S 733 mmHg 90%
    Mehr zeigen